Mobridge, SD

5:25 PM CDT on May 29, 2017 (GMT -0500)
Mobridge Municipal

Weather History for KMBG - September, 2014

Change the Weather History Date:

Monday, September 29, 2014

  Actual Average Record
Temperature  
Mean Temperature 56 °F 54 °F  
Max Temperature 62 °F 68 °F 91 °F (1931)
Min Temperature 51 °F 41 °F 20 °F (1939)
Degree Days  
Heating Degree Days 8 11  
Month to date heating degree days 144 176  
Since 1 July heating degree days 191 209  
Cooling Degree Days 0 0  
Month to date cooling degree days 63 60  
Year to date cooling degree days 466 641  
Growing Degree Days 6 (Base 50)    
Moisture  
Dew Point 49 °F    
Average Humidity 74    
Maximum Humidity 83    
Minimum Humidity 64    
Precipitation  
Precipitation 0.00 in 0.05 in 0.88 in (1965)
Month to date precipitation 0.56 1.49  
Year to date precipitation 19.88 15.40  
Sea Level Pressure  
Sea Level Pressure 30.05 in    
Wind  
Wind Speed 9 mph (East)    
Max Wind Speed 17 mph    
Max Gust Speed 23 mph    
Visibility 10 miles    
Events      
T = Trace of Precipitation, MM = Missing Value Source: NWS Daily Summary

Daily Weather History Graph

Daily Weather History Graph

Search for Another Location

Airport or City:

Trip Planner

Search our weather history database for the weather conditions in past years. The results will help you decide how hot, cold, wet, or windy it might be!

Date:

Astronomy

Sep. 29, 2014 Rise Set
Actual Time 7:37 AM CDT 7:25 PM CDT
Civil Twilight 7:07 AM CDT 7:55 PM CDT
Nautical Twilight 6:33 AM CDT 8:29 PM CDT
Astronomical Twilight 5:58 AM CDT 9:04 PM CDT
Moon 1:04 PM CDT 10:48 PM CDT
Length of Visible Light 12h 47m
Length of Day
11h 48m
Waxing Crescent, 28% of the Moon is Illuminated
Sep 29
Waxing Crescent
Oct 1
First Quarter
Oct 8
Full
Oct 15
Last Quarter
Oct 23
New

Hourly Weather History & Observations

Time (CDT) Temp. Dew Point Humidity Pressure Visibility Wind Dir Wind Speed Gust Speed Precip Events Conditions
12:31 AM - - N/A% 30.18 in 10.0 mi NNE 8.1 mph - N/A   Overcast
12:52 AM - - N/A% 30.18 in 10.0 mi NE 10.4 mph - N/A   Overcast
1:52 AM - - N/A% 30.18 in 10.0 mi NE 13.8 mph 19.6 mph N/A   Overcast
2:52 AM - - N/A% 30.18 in 10.0 mi NE 9.2 mph - N/A   Overcast
3:52 AM - - N/A% 30.16 in 10.0 mi NE 9.2 mph - N/A   Overcast
4:31 AM - - N/A% 30.15 in 10.0 mi NE 6.9 mph - N/A   Overcast
4:52 AM - - N/A% 30.15 in 10.0 mi Variable 4.6 mph - N/A   Overcast
5:52 AM - - N/A% 30.15 in 10.0 mi Variable 3.5 mph - N/A   Overcast
6:52 AM - - N/A% 30.15 in 10.0 mi NE 4.6 mph - N/A   Overcast
7:52 AM 51.1 °F 46.9 °F 86% 30.13 in 10.0 mi NE 5.8 mph - N/A   Overcast
8:52 AM 52.0 °F 46.9 °F 83% 30.14 in 10.0 mi East 5.8 mph - N/A   Overcast
9:52 AM 53.1 °F 46.9 °F 80% 30.14 in 10.0 mi East 10.4 mph - N/A   Overcast
10:25 AM 53.1 °F 46.9 °F 80% 30.13 in 10.0 mi East 11.5 mph - N/A   Unknown
11:40 AM - - N/A% 30.11 in 10.0 mi East 12.7 mph - N/A   Overcast
11:52 AM 55.9 °F 48.0 °F 75% 30.12 in 10.0 mi East 8.1 mph 20.7 mph N/A   Overcast
12:52 PM 57.9 °F 48.0 °F 70% 30.09 in 10.0 mi East 10.4 mph - N/A   Overcast
1:52 PM 59.0 °F 48.9 °F 69% 30.07 in 10.0 mi East 10.4 mph - N/A   Overcast
2:52 PM 60.1 °F 48.9 °F 67% 30.03 in 10.0 mi East 11.5 mph - N/A   Overcast
3:52 PM 60.1 °F 50.0 °F 69% 30.01 in 10.0 mi ESE 10.4 mph - N/A   Overcast
4:52 PM 62.1 °F 51.1 °F 67% 29.99 in 10.0 mi ESE 10.4 mph - N/A   Overcast
5:52 PM 62.1 °F 51.1 °F 67% 29.97 in 10.0 mi ESE 8.1 mph - N/A   Overcast
6:52 PM 61.0 °F 50.0 °F 67% 29.96 in 10.0 mi East 13.8 mph - N/A   Overcast
7:52 PM 57.9 °F 50.0 °F 75% 29.95 in 10.0 mi East 17.3 mph 23.0 mph N/A   Overcast
8:52 PM 57.0 °F 50.0 °F 77% 29.94 in 10.0 mi East 10.4 mph - N/A   Overcast
9:39 PM 55.9 °F 50.0 °F 80% 29.92 in 10.0 mi East 10.4 mph - N/A   Scattered Clouds
9:52 PM 55.9 °F 50.0 °F 80% 29.92 in 10.0 mi East 10.4 mph - N/A   Clear
10:22 PM 55.9 °F 50.0 °F 80% 29.91 in 10.0 mi East 3.5 mph - N/A   Mostly Cloudy
10:38 PM 55.0 °F 50.0 °F 83% 29.90 in 10.0 mi East 4.6 mph - N/A   Scattered Clouds
10:52 PM 55.0 °F 50.0 °F 83% 29.90 in 10.0 mi East 5.8 mph - N/A   Partly Cloudy
11:37 PM 55.0 °F 50.0 °F 83% 29.89 in 10.0 mi East 4.6 mph - N/A   Mostly Cloudy
11:52 PM 55.0 °F 50.0 °F 83% 29.88 in 10.0 mi East 6.9 mph - N/A   Overcast